Location: South River
(34.9588°N, 76.5969°W)
Time: 21:12:22
(UTC+00:00)

Daily predictions for brighter satellites

Satellite Brightness Start Highest point End
(mag) Time Altitude Azimuth Time Altitude Azimuth Time Altitude Azimuth
NOAA 12 4.2 22:37:27 10° SSE 22:42:32 55° ENE 22:47:38 10° N
Cosmos 1602 Rocket 4.0 22:40:00 10° SSE 22:44:08 41° E 22:48:15 10° NNE
Cosmos 2360 Rocket 2.5 22:40:02 10° NNW 22:45:40 74° WSW 22:51:15 10° SSE
IRS-1C Rocket 4.2 22:40:49 10° SSE 22:46:03 90° ENE 22:51:20 10° NNW
Cosmos 2227 Rocket 3.6 22:42:31 10° SE 22:46:09 18° E 22:49:46 10° ENE
DELTA 2 R/B (1) 3.8 22:43:20 10° SW 22:48:53 68° SSE 22:54:27 10° ENE
COSMOS 2428 3.2 22:44:05 10° N 22:49:22 37° ENE 22:54:36 10° SE
Okean-O 2.8 22:46:31 10° SSE 22:50:47 49° ENE 22:55:03 10° N
Cosmos 2074 Rocket 4.2 22:44:36 10° S 22:50:54 83° W 22:57:13 10° N
CZ-4C R/B 3.7 22:45:47 10° NNW 22:52:14 31° NE 22:59:19 10° ESE
Cosmos 2219 Rocket 2.6 22:49:07 10° N 22:54:29 41° ENE 22:59:47 10° SE
COSMO-SKYMED 1 2.7 22:53:16 10° NNE 22:57:32 56° E 23:01:47 10° S
Cosmos 1461 3.6 23:02:47 10° NNW 23:06:51 37° ENE 23:11:03 10° SE
Cosmos 1626 Rocket 3.7 23:03:20 10° S 23:07:41 77° W 23:12:01 10° N
Cosmos 2084 Rocket 3.8 23:06:23 10° NW 23:10:49 71° WSW 23:15:11 10° SSE
Nadezhda 3 Rocket 4.0 23:10:57 10° N 23:17:13 70° E 23:23:31 10° SSE
Cosmos 1340 Rocket 3.0 23:13:37 10° N 23:17:25 44° E 23:21:13 10° SSE
Cosmos 1125 Rocket 3.8 23:14:14 10° SSW 23:19:24 70° WNW 23:24:35 10° NNE
SL-14 R/B 4.4 23:18:20 10° SSW 23:22:13 47° W 23:26:05 10° N
CSL-04 Debris 4.4 23:19:14 10° SE 23:24:20 46° ENE 23:29:27 10° N
Cosmos 1300 2.7 23:21:32 10° N 23:25:21 87° W 23:29:09 10° S
Cosmos 1939 Rocket 3.5 23:22:15 10° SE 23:25:38 30° ENE 23:29:05 10° N
Cosmos 1825 Rocket 3.8 23:23:12 10° SSE 23:27:22 45° E 23:31:31 10° NNE
Cosmos 2341 Rocket 4.0 23:21:22 10° S 23:27:40 65° E 23:33:57 10° NNE
Meteor 1-21 Rocket 4.2 23:26:11 10° S 23:31:37 62° E 23:37:10 10° NNE
Envisat 4.0 23:27:24 10° S 23:32:19 50° W 23:37:14 10° NNW
ISS -2.8 23:33:23 10° SSW 23:36:23 31° SE 23:36:54 29° ESE
SL-8 Rocket 4.1 23:30:18 10° SSE 23:36:24 54° E 23:42:31 10° NNE
USA 234 4.4 23:30:38 10° SSE 23:36:50 46° SW 23:43:04 10° NW
Cosmos 2333 Rocket 2.4 23:32:42 10° NNW 23:38:24 77° WSW 23:44:02 10° SSE
Cosmos 1269 Rocket 4.3 23:34:29 10° N 23:39:29 41° ENE 23:44:27 10° SE
Cosmos 2237 Rocket 2.6 23:37:06 10° N 23:42:19 37° ENE 23:46:35 14° SE
NOSS 0 Rocket 3.9 23:36:59 10° NNW 23:43:08 60° ENE 23:49:13 10° SE
Meteor 2-10 Rocket 4.1 23:40:19 10° NNE 23:45:05 32° ENE 23:49:40 10° SE
Shenzhou-11 Module 2.7 23:42:59 10° SW 23:45:13 34° SSE 23:45:13 34° SSE
Cosmos 1048 Rocket 4.3 23:41:08 10° NNW 23:46:13 67° WSW 23:51:16 10° S
CZ-4 R/B 1.7 23:45:21 10° S 23:49:16 65° W 23:53:17 10° NNW
